DateTimeUTC,F1_A11,F1_S11,BsB_S11,BsG_S11,BsR_S11,BbsB_S11,BbsG_S11,BbsR_S11,BaB_A11,BaG_A11,BaR_A11,Tu_S11,T_S11,Uu_S11,U_S11,P_S11,T1_A11
2021-06-21T00:00:00Z,00000200,20000000,,,,,,,-000.20,0000.19,-000.00,18.5,25.5,03.4,02.2,0666.8,31.1
2021-06-21T00:01:00Z,00000200,20000000,,,,,,,0000.18,0000.38,0000.27,18.5,25.5,03.4,02.2,0666.8,31.1
2021-06-21T00:02:00Z,00000200,20000000,,,,,,,0000.00,-000.79,-000.14,18.5,25.6,03.4,02.2,0666.8,31.1
2021-06-21T00:03:00Z,00000200,60000000,,,,,,,0000.49,0000.37,0000.14,18.5,25.6,03.4,02.2,0666.8,31.1
2021-06-21T00:04:00Z,00000200,40000000,0001.01,0000.44,0000.67,0000.17,0000.29,0000.24,0000.11,0000.73,0000.61,18.8,25.5,03.4,02.3,0667.7,31.1
2021-06-21T00:05:00Z,00000200,00000000,0000.78,0000.42,0000.55,-000.05,-000.06,0000.10,0000.60,0000.00,0000.10,18.9,25.4,03.4,02.3,0667.8,31.1
2021-06-21T00:06:00Z,00000200,00000000,0000.82,0000.86,0000.28,-000.17,0000.13,-000.06,0000.07,0000.76,-000.25,18.9,25.4,03.4,02.3,0667.8,31.1
2021-06-21T00:07:00Z,00000200,00000000,0001.18,0000.88,0000.51,0000.06,0000.12,0000.07,0000.21,-000.07,0000.38,18.9,25.4,03.5,02.4,0667.8,31.1
2021-06-21T00:08:00Z,00000200,00000000,0000.72,0000.72,0000.33,0000.94,0000.04,0000.16,0000.35,0000.15,0000.45,18.8,25.4,03.4,02.3,0667.8,31.1
2021-06-21T00:09:00Z,00000200,00000000,0000.68,0000.99,0000.42,0000.31,0000.10,0000.32,0000.49,0000.52,0000.12,18.8,25.4,03.5,02.3,0667.8,31.1
2021-06-21T00:10:00Z,00000200,00000000,0001.26,0000.51,0000.51,0000.74,-000.03,0000.15,0000.28,0000.39,0000.28,18.8,25.3,03.4,02.3,0667.8,31.1
2021-06-21T00:11:00Z,00000200,00000000,0001.12,0000.49,0000.26,0000.25,0000.12,-000.07,0000.07,-000.05,0000.48,18.8,25.3,03.4,02.3,0667.8,31.1
2021-06-21T00:12:00Z,00000200,00000000,0000.71,0000.69,0000.66,0000.39,0000.39,0000.52,0000.17,0000.35,-000.22,18.8,25.3,03.4,02.3,0667.8,31.1
2021-06-21T00:13:00Z,00000200,00000000,0000.43,0000.72,0000.65,0000.01,-000.22,0000.05,0000.28,0000.17,0000.49,18.8,25.3,03.4,02.3,0667.7,31.1
2021-06-21T00:14:00Z,00000200,00000000,0000.75,0000.37,0000.14,0000.33,-000.03,0000.09,0000.09,0000.08,-000.03,18.8,25.3,03.5,02.3,0667.7,31.1
2021-06-21T00:15:00Z,00000200,00000000,0001.24,0000.57,0000.18,0000.77,0000.17,0000.18,0000.51,0000.48,0000.32,18.8,25.3,03.5,02.3,0667.7,31.1
2021-06-21T00:16:00Z,00000200,00000000,0001.48,0000.50,0000.42,-000.01,0000.01,0000.47,0000.29,0000.50,-000.03,18.7,25.3,03.6,02.4,0667.7,31.1
2021-06-21T00:17:00Z,00000200,00000000,0001.86,0000.77,0000.44,0000.28,0000.03,-000.04,0000.40,0000.22,0000.51,18.7,25.3,03.4,02.3,0667.7,31.1
2021-06-21T00:18:00Z,00000200,00000000,0000.59,0000.65,0000.51,0000.41,-000.08,0000.13,0000.20,0000.33,-000.06,18.7,25.3,03.4,02.3,0667.7,31.1
2021-06-21T00:19:00Z,00000200,00000000,0000.34,0000.67,0000.36,0000.22,-000.10,0000.20,0000.35,-000.24,0000.19,18.7,25.2,03.5,02.4,0667.7,31.1
2021-06-21T00:20:00Z,00000200,00000000,0000.89,0000.32,0000.09,0000.54,-000.07,-000.10,-000.19,-000.18,-000.03,18.7,25.2,03.4,02.3,0667.7,31.1
2021-06-21T00:21:00Z,00000200,00000000,-000.29,0000.43,0000.35,-000.16,-000.12,0000.13,0000.38,0000.34,0000.31,18.7,25.2,03.6,02.4,0667.7,31.1
2021-06-21T00:22:00Z,00000200,00000000,-000.01,0000.28,0000.12,0000.08,-000.13,-000.16,0000.01,0000.51,0000.09,18.7,25.2,03.5,02.3,0667.7,31.1
2021-06-21T00:23:00Z,00000200,00000000,0000.35,0000.60,0000.23,0000.35,-000.03,0000.43,0000.37,0000.38,0000.21,18.7,25.2,03.5,02.3,0667.7,31.1
2021-06-21T00:24:00Z,00000200,00000000,0000.65,0000.60,0000.06,0000.61,-000.03,0000.05,0000.25,0000.09,0000.20,18.7,25.2,03.5,02.4,0667.7,31.1
2021-06-21T00:25:00Z,00000200,00000000,0001.11,0000.76,0000.44,0000.34,0000.06,0000.17,0000.23,0000.13,0000.16,18.7,25.2,03.5,02.4,0667.7,31.1
2021-06-21T00:26:00Z,00000200,00000000,0000.53,0000.42,0000.22,0000.09,0000.05,0000.21,0000.13,0000.02,-000.08,18.7,25.2,03.5,02.4,0667.7,31.1
2021-06-21T00:27:00Z,00000200,00000000,0000.36,0000.67,0000.46,0000.16,0000.31,0000.14,0000.04,-000.01,0000.03,18.6,25.2,03.5,02.4,0667.7,31.1
2021-06-21T00:28:00Z,00000200,00000000,0000.10,0000.52,0000.44,0000.21,-000.24,0000.24,0000.10,0000.23,0000.08,18.6,25.2,03.5,02.3,0667.7,31.1
2021-06-21T00:29:00Z,00000200,00000000,-000.43,0000.12,0000.01,0000.35,-000.04,0000.16,0000.14,-000.18,0000.27,18.6,25.2,03.5,02.4,0667.7,31.1
2021-06-21T00:30:00Z,00000200,00000000,-000.36,-000.00,-000.05,-000.01,-000.18,-000.01,-000.09,0000.47,0000.22,18.7,25.2,03.5,02.3,0667.7,31.1
2021-06-21T00:31:00Z,00000200,00000000,-000.05,-000.01,-000.02,0000.47,-000.01,-000.07,0000.33,-000.09,-000.07,18.8,25.3,03.5,02.3,0667.7,31.1
2021-06-21T00:32:00Z,00000200,00000000,0000.78,-000.06,0000.16,0000.09,-000.16,0000.35,-000.30,0000.14,-000.12,18.9,25.3,03.5,02.3,0667.8,31.1
2021-06-21T00:33:00Z,00000200,00000000,0000.03,0000.26,0000.32,0000.08,0000.09,0000.07,0000.30,-000.05,-000.05,18.9,25.4,03.5,02.3,0667.8,31.1
2021-06-21T00:34:00Z,00000200,00000000,0000.52,-000.18,0000.26,0000.31,0000.02,-000.11,0000.00,0000.05,0000.07,18.9,25.4,03.4,02.3,0667.7,31.1
2021-06-21T00:35:00Z,00000200,00000000,-000.04,-000.26,-000.07,0000.64,-000.07,-000.14,-000.10,0000.07,-000.02,18.9,25.3,03.4,02.3,0667.7,31.1
2021-06-21T00:36:00Z,00000200,00000000,-000.44,-000.23,0000.18,0000.01,-000.02,0000.22,-000.07,-000.05,-000.02,18.9,25.3,03.4,02.3,0667.8,31.1
2021-06-21T00:37:00Z,00000200,00000000,-000.53,0000.14,-000.07,-000.08,0000.12,0000.46,0000.25,-000.13,0000.03,18.9,25.3,03.3,02.2,0667.7,31.1
2021-06-21T00:38:00Z,00000200,00000000,0000.25,-000.09,0000.07,0000.44,-000.17,0000.32,-000.11,0000.01,-000.04,18.9,25.3,03.4,02.3,0667.8,31.1
2021-06-21T00:39:00Z,00000200,00000000,0000.28,0000.46,0000.40,0000.05,-000.04,0000.26,0000.03,0000.40,0000.11,18.8,25.3,03.4,02.3,0667.8,31.1
2021-06-21T00:40:00Z,00000200,00000000,0000.03,0000.16,0000.08,-000.14,0000.06,-000.03,0000.07,-000.15,-000.27,18.8,25.3,03.4,02.3,0667.8,31.1
2021-06-21T00:41:00Z,00000200,00000000,-001.08,0000.05,0000.25,0000.09,-000.12,0000.39,0000.25,0000.11,0000.33,18.8,25.3,03.3,02.2,0667.8,31.1
2021-06-21T00:42:00Z,00000200,00000000,0000.09,0000.06,-000.18,0000.08,0000.16,-000.05,-000.50,-000.49,0000.11,18.8,25.3,03.3,02.2,0667.8,31.1
2021-06-21T00:43:00Z,00000200,00000000,-000.32,-000.15,0000.07,-000.18,-000.03,-000.01,-000.21,-000.11,0000.14,18.8,25.3,03.3,02.2,0667.8,31.1
2021-06-21T00:44:00Z,00000200,00000000,-000.49,-000.11,0000.06,0000.26,-000.12,0000.04,0000.22,0000.08,0000.08,18.7,25.3,03.2,02.1,0667.8,31.1
2021-06-21T00:45:00Z,00000200,00000000,-000.14,0000.16,-000.19,0000.42,-000.03,-000.16,-000.31,0000.07,-000.50,18.7,25.3,03.2,02.1,0667.8,31.1
2021-06-21T00:46:00Z,00000200,00000000,0000.11,0000.01,-000.13,0000.17,0000.20,0000.14,-000.08,-000.33,-000.32,18.7,25.2,03.2,02.1,0667.7,31.1
2021-06-21T00:47:00Z,00000200,00000000,-000.26,0000.05,-000.20,-000.37,0000.13,0000.19,0000.20,0000.16,0000.19,18.7,25.2,03.1,02.1,0667.7,31.1
2021-06-21T00:48:00Z,00000200,00000000,-000.51,-000.26,-000.00,-000.11,0000.03,-000.23,-000.34,0000.19,-000.01,18.7,25.2,03.1,02.1,0667.7,31.1
2021-06-21T00:49:00Z,00000200,00000000,-000.50,-000.08,-000.06,-000.15,0000.04,0000.05,0000.37,-000.27,0000.02,18.7,25.2,03.2,02.1,0667.7,31.1
2021-06-21T00:50:00Z,00000200,00000000,-000.63,0000.02,-000.07,-000.39,-000.07,0000.04,0000.06,0000.39,0000.18,18.7,25.2,03.2,02.1,0667.7,31.1
2021-06-21T00:51:00Z,00000200,00000000,-000.12,0000.08,0000.02,0000.21,-000.01,0000.07,0000.06,0000.01,0000.07,18.7,25.2,03.2,02.2,0667.7,31.1
2021-06-21T00:52:00Z,00000200,00000000,-000.39,0000.02,-000.00,0000.58,-000.15,0000.11,-000.35,-000.07,-000.43,18.6,25.2,03.1,02.1,0667.7,31.1
2021-06-21T00:53:00Z,00000200,00000000,-000.85,0000.15,0000.09,-000.30,0000.10,0000.14,-000.40,-000.59,0000.18,18.6,25.2,03.0,02.0,0667.7,31.1
2021-06-21T00:54:00Z,00000200,00000000,-000.40,0000.23,0000.20,0000.06,-000.15,0000.10,0000.16,0000.03,-000.05,18.6,25.2,02.9,02.0,0667.7,31.1
2021-06-21T00:55:00Z,00000200,00000000,-000.29,0000.13,0000.10,0000.49,-000.14,0000.14,0000.18,-000.04,0000.15,18.6,25.1,03.0,02.0,0667.7,31.1
2021-06-21T00:56:00Z,00000200,00000000,0000.45,-000.08,0000.24,-000.19,-000.09,-000.04,0000.30,0000.24,0000.07,18.6,25.1,03.0,02.0,0667.7,31.1
2021-06-21T00:57:00Z,00000200,40000000,,,,,,,0000.22,0000.40,0000.26,18.6,25.2,03.3,02.2,0667.7,31.1
2021-06-21T00:58:00Z,00000200,60000000,,,,,,,-000.30,-000.66,-000.52,18.3,25.3,03.2,02.1,0666.7,31.1
2021-06-21T00:59:00Z,00000200,20000000,,,,,,,-000.01,-000.01,0000.19,18.3,25.4,03.2,02.1,0666.7,31.1
